Regional Weather Roundup
Issued by NWS

Home | Current Version | Previous Version | Text Only | Print | Product List | Glossary Off
Versions: 1 2 3 4 5 6 7 8 9 10 11 12 13 14 15 16 17 18 19 20 21 22 23 24 25 26 27 28 29 30 31 32 33 34 35 36 37 38 39 40 41 42 43 44 45 46 47 48 49 50

000
ASUS43 KIND 220309
RWRIN

WEATHER ROUNDUP FOR INDIANA
NATIONAL WEATHER SERVICE INDIANAPOLIS IN
1100 PM EDT FRI JUL 21 2017

NOTE: "FAIR" INDICATES FEW OR NO CLOUDS BELOW 12,000 FEET WITH NO
SIGNIFICANT WEATHER AND/OR OBSTRUCTIONS TO VISIBILITY.

* - STATION DOES NOT REPORT WEATHER SUCH AS PRECIPITATION OR FOG.

+ - STATION NOT QUALITY CONTROLLED BY THE NATIONAL WEATHER SERVICE.
    USE DATA WITH CAUTION...ESPECIALLY DEWPOINT AND RELATIVE
    HUMIDITY OBSERVATIONS.

INZ001>003-010>013-019-020-220400-
NORTHWEST INDIANA

CITY           SKY/WX    TMP DP  RH WIND       PRES   REMARKS
GARY /AIRPORT/ RAIN      77  75  94 NE6       29.92R
KNOX *+        CLOUDY    70  68  94 N9        29.93R
LA PORTE +     TSTM      71  69  93 S12G18    29.97R
MICHIGAN CITY+ LGT RAIN  75  75 100 S10G20    29.97R
MONTICELLO +   CLOUDY    79  76  92 E3        29.90F
RENSSELAER +   CLOUDY    73  70  88 CALM      29.89F
VALPARAISO     LGT RAIN  73  72  96 E10       29.94F

$$

LMZ046-743>745-220400-
SOUTHERN LAKE MICHIGAN

STATION/POSITION TIME  TEMP    WIND        PRES    WAVE
                       AIR SEA DIR/SP/G            HT
                 (UTC) (F)     (DEG/KT/KT) (MB)    (FT)
BURNS HARBOR     0305   73     190/  9/ 19 1013.2
MICHIGAN CITY    0240   78     120/  6/  8   N/A
5NW MICH CITY    0300   74 75  200/ 14/ 25   N/A     1

$$

INZ004-005-014>016-021>024-220400-
NORTH CENTRAL INDIANA

CITY           SKY/WX    TMP DP  RH WIND       PRES   REMARKS
GOSHEN         MOCLDY    77  69  76 S7        29.93S
LOGANSPORT +   LGT RAIN  75  73  94 E3        29.94R
PERU/GRISSOM   MOCLDY    78  76  95 SE5       29.93R
ROCHESTER +    CLOUDY    77  73  88 CALM      29.95R
SOUTH BEND     CLOUDY    79  70  74 S8        29.94R
WARSAW +       CLOUDY    77  70  78 CALM      29.94F

$$

INZ006>009-017-018-025>027-220400-
NORTHEAST INDIANA

CITY           SKY/WX    TMP DP  RH WIND       PRES   REMARKS
AUBURN +       CLOUDY    77  70  78 CALM      29.95S
FORT WAYNE     CLOUDY    76  69  79 SE6       29.96R
HUNTINGTON +   PTCLDY    73  72  96 CALM      29.95F
KENDALLVILLE + CLOUDY    75  72  91 S3        29.95F

$$

INZ028-029-035-036-043>045-051>053-220400-
WEST CENTRAL INDIANA

CITY           SKY/WX    TMP DP  RH WIND       PRES   REMARKS
GREENCASTLE +  MOCLDY    79  77  94 CALM      29.95S
LAFAYETTE      TSTM      75  72  90 SE8G16    29.92R
TERRE HAUTE    CLEAR     81  78  91 S5        29.92R

$$

INZ030>032-037>040-046>048-054>057-064-065-220400-
CENTRAL INDIANA

CITY           SKY/WX    TMP DP  RH WIND       PRES   REMARKS
CP ATTERBURY + PTCLDY    77  73  88 CALM      29.97R FOG
FRANKFORT +    MOCLDY    79  76  91 SE3       29.96R
INDIANAPOLIS   TSTM      80  75  84 VRB6      29.94S
-EAGLE CREEK   LGT RAIN  78  74  87 SE6       29.94R FOG
KOKOMO +       CLOUDY    77  75  93 SE5       29.95S
MARION +       CLEAR     75  73  94 SE5       29.96R
MT COMFORT *+  CLOUDY    79  75  89 SE6       29.97R
SHELBYVILLE    CLEAR     79  73  82 SE7       29.95R
ZIONSVILLE +   CLOUDY    77  74  91 SE5       29.95F

$$

INZ033-034-041-042-049-050-058-059-220400-
EAST CENTRAL INDIANA

CITY           SKY/WX    TMP DP  RH WIND       PRES   REMARKS
MUNCIE         CLEAR     79  73  82 SE5       29.95S
RICHMOND +     MOCLDY    72  70  94 CALM      30.00R

$$

INZ060-061-067>069-081>083-085>088-220400-
SOUTHWEST INDIANA

CITY           SKY/WX    TMP DP  RH WIND       PRES   REMARKS
EVANSVILLE     CLEAR     85  75  72 SW6       29.95R
HUNTINGBURG *+ PTCLDY    84  76  76 S5        29.96R

$$

INZ062-063-066-070>080-084-089>092-220400-
SOUTH CENTRAL AND SOUTHEAST INDIANA

CITY           SKY/WX    TMP DP  RH WIND       PRES   REMARKS
BEDFORD +      PTCLDY    84  75  74 CALM      29.95R
BLOOMINGTON    CLEAR     82  75  79 CALM      29.96R
MADISON *+     CLEAR     81  73  78 CALM      29.99R
NORTH VERNON + CLEAR     79  75  89 E3        29.97R
SEYMOUR +      PTCLDY    81  79  94 CALM      29.96R

$$





USA.gov is the U.S. government's official web portal to all federal, state and local government web resources and services.